Location: Lixville
(37.5770°N, 89.9118°W)
Time: 05:14:52
(UTC+00:00)

Envisat - Visible Passes

Search period start: 11 October 2024 00:00
Search period end: 21 October 2024 00:00
Orbit: 762 x 764 km, 98.3° (Epoch: 10 October)

Date Brightness Start Highest point End Pass type
(mag) Time Alt. Az. Time Alt. Az. Time Alt. Az.
11 Oct 5.0 09:27:38 10° N 09:29:00 19° N 09:29:00 19° N visible
12 Oct 5.5 08:50:09 10° NNE 08:50:56 15° NNE 08:50:56 15° NNE visible
12 Oct 5.1 10:30:42 10° NNW 10:31:05 11° NNW 10:31:05 11° NNW visible
13 Oct 5.0 09:51:56 10° N 09:53:00 16° NNW 09:53:00 16° NNW visible
14 Oct 5.3 09:14:03 10° N 09:14:56 15° N 09:14:56 15° N visible
15 Oct 5.9 08:36:47 10° NNE 08:36:52 10° NNE 08:36:52 10° NNE visible
15 Oct 5.2 10:16:34 10° NNW 10:16:59 12° NNW 10:16:59 12° NNW visible
16 Oct 5.3 09:38:11 10° N 09:38:55 14° N 09:38:55 14° N visible
17 Oct 5.7 09:00:32 10° NNE 09:00:51 12° NNE 09:00:51 12° NNE visible
18 Oct 5.3 10:02:36 10° NNW 10:02:53 11° NNW 10:02:53 11° NNW visible
19 Oct 5.5 09:24:31 10° N 09:24:48 12° N 09:24:48 12° N visible
